QPF
0.00 0.00 0.00 0.00 0.00 0.00 0.00 0.00 0.00 0.00 0.00 0.00 0.00 0.00 0.00 0.00 0.00 0.00 0.00 0.00 0.00 0.00 0.00 0.00 0.00 0.00 0.00 0.00 0.00 0.00 0.00 0.00 0.00 0.00 0.00 0.00 0.00 0.00 0.00 0.00 0.00 0.00 0.00
0.00 0.00 0.00 0.00 0.00 0.00 0.00 0.00 0.00 0.00 0.00 0.00 0.00 0.00 0.00 0.00 0.00 0.00 0.00 0.00 0.00 0.00 0.00 0.00 0.00 0.00 0.00 0.00 0.00 0.00 0.00 0.00 0.00 0.00 0.00 0.00 0.00 0.00 0.00 0.00 0.00 0.00 0.00
0.00 0.00 0.00 0.00 0.00 0.00 0.00 0.00 0.00 0.00 0.00 0.00 0.00 0.00 0.00 0.00 0.00 0.00 0.00 0.00 0.00 0.00 0.00 0.00 0.00 0.00 0.00 0.00 0.00 0.00 0.00 0.00 0.00 0.00 0.00 0.00 0.00 0.00 0.00 0.00 0.00 0.00 0.00
0.00 0.00 0.00 0.00 0.00 0.00 0.00 0.00 0.00 0.00 0.00 0.00 0.00 0.00 0.00 0.00 0.00 0.00 0.00 0.00 0.00 0.00 0.00 0.00 0.00 0.00 0.00 0.00 0.00 0.00 0.00 0.00 0.00 0.00 0.00 0.00 0.00 0.00 0.00 0.00 0.00 0.00 0.00
0.00 0.00 0.00 0.00 0.00 0.00 0.00 0.00 0.00 0.00 0.00 0.00 0.00 0.00 0.00 0.00 0.00 0.00 0.00 0.00 0.00 0.00 0.00 0.00 0.00 0.00 0.00 0.00 0.00 0.00 0.00 0.00 0.00 0.00 0.00 0.00 0.00 0.00 0.00 0.00 0.00 0.00 0.00
0.00 0.00 0.00 0.00 0.00 0.00 0.00 0.00 0.00 0.00 0.00 0.00 0.00 0.00 0.00 0.00 0.00 0.00 0.00 0.00 0.00 0.00 0.00 0.00 0.00 0.00 0.00 0.00 0.00 0.00 0.00 0.00 0.00 0.00 0.00 0.00 0.00 0.00 0.00 0.01 0.01 0.00 0.00
0.00 0.00 0.00 0.00 0.00 0.00 0.00 0.00 0.00 0.00 0.00 0.00 0.00 0.00 0.00 0.00 0.00 0.00 0.00 0.00 0.00 0.00 0.00 0.00 0.00 0.00 0.00 0.00 0.00 0.00 0.00 0.00 0.00 0.00 0.00 0.00 0.00 0.00 0.01 0.05 0.05 0.04 0.02
0.00 0.00 0.00 0.00 0.00 0.00 0.00 0.00 0.00 0.00 0.00 0.00 0.00 0.00 0.00 0.00 0.00 0.00 0.00 0.00 0.00 0.00 0.00 0.00 0.00 0.00 0.00 0.00 0.00 0.00 0.00 0.00 0.00 0.00 0.00 0.00 0.00 0.00 0.03 0.10 0.10 0.07 0.05
0.00 0.00 0.00 0.00 0.00 0.00 0.00 0.00 0.00 0.00 0.00 0.00 0.00 0.00 0.00 0.00 0.00 0.00 0.00 0.00 0.00 0.00 0.00 0.00 0.00 0.00 0.00 0.00 0.00 0.00 0.00 0.01 0.00 0.00 0.00 0.00 0.00 0.00 0.03 0.11 0.10 0.06 0.05
0.00 0.00 0.00 0.00 0.00 0.00 0.00 0.00 0.00 0.00 0.00 0.00 0.00 0.00 0.00 0.00 0.00 0.00 0.00 0.00 0.00 0.00 0.00 0.00 0.00 0.00 0.01 0.01 0.01 0.01 0.01 0.01 0.01 0.01 0.00 0.00 0.00 0.01 0.03 0.09 0.10 0.07 0.05
0.00 0.00 0.00 0.00 0.00 0.00 0.00 0.00 0.00 0.00 0.00 0.00 0.00 0.00 0.00 0.00 0.00 0.00 0.00 0.00 0.00 0.00 0.00 0.01 0.01 0.01 0.01 0.01 0.01 0.01 0.01 0.00 0.00 0.00 0.00 0.00 0.01 0.02 0.06 0.07 0.09 0.10 0.09
0.00 0.00 0.00 0.00 0.00 0.00 0.00 0.00 0.00 0.00 0.00 0.00 0.00 0.00 0.00 0.00 0.00 0.00 0.00 0.00 0.00 0.02 0.03 0.03 0.05 0.05 0.03 0.02 0.01 0.01 0.00 0.00 0.00 0.00 0.00 0.01 0.02 0.05 0.11 0.09 0.07 0.11 0.13
0.00 0.00 0.00 0.00 0.00 0.00 0.00 0.00 0.00 0.00 0.00 0.00 0.00 0.00 0.00 0.00 0.00 0.00 0.00 0.00 0.01 0.04 0.07 0.09 0.10 0.06 0.04 0.03 0.02 0.00 0.00 0.00 0.00 0.00 0.00 0.01 0.03 0.10 0.16 0.13 0.10 0.10 0.13
0.00 0.00 0.00 0.00 0.00 0.00 0.00 0.00 0.00 0.00 0.00 0.00 0.00 0.00 0.00 0.00 0.00 0.00 0.00 0.01 0.02 0.04 0.07 0.09 0.08 0.06 0.04 0.02 0.02 0.01 0.00 0.00 0.01 0.00 0.00 0.01 0.03 0.09 0.15 0.13 0.10 0.09 0.10
0.00 0.00 0.00 0.00 0.00 0.00 0.00 0.00 0.00 0.00 0.00 0.00 0.00 0.01 0.02 0.01 0.01 0.01 0.01 0.02 0.03 0.06 0.08 0.12 0.14 0.12 0.08 0.05 0.03 0.02 0.01 0.02 0.02 0.02 0.02 0.01 0.03 0.06 0.09 0.11 0.10 0.08 0.07
0.00 0.00 0.00 0.00 0.01 0.01 0.01 0.01 0.01 0.00 0.01 0.01 0.02 0.04 0.07 0.08 0.07 0.08 0.08 0.08 0.08 0.08 0.08 0.11 0.13 0.16 0.12 0.08 0.05 0.06 0.06 0.05 0.04 0.03 0.03 0.02 0.02 0.03 0.04 0.06 0.08 0.08 0.07
0.00 0.00 0.01 0.02 0.03 0.03 0.03 0.03 0.03 0.04 0.05 0.07 0.10 0.14 0.20 0.24 0.23 0.24 0.19 0.12 0.11 0.16 0.18 0.16 0.15 0.17 0.12 0.11 0.11 0.16 0.17 0.14 0.10 0.07 0.06 0.03 0.02 0.01 0.02 0.04 0.06 0.08 0.08
0.01 0.02 0.04 0.05 0.06 0.07 0.08 0.11 0.14 0.15 0.17 0.16 0.13 0.14 0.18 0.24 0.25 0.24 0.14 0.04 0.07 0.18 0.24 0.23 0.20 0.20 0.15 0.16 0.15 0.20 0.22 0.17 0.13 0.09 0.06 0.04 0.03 0.01 0.01 0.04 0.06 0.08 0.10
0.02 0.03 0.07 0.09 0.10 0.11 0.14 0.19 0.22 0.22 0.18 0.14 0.12 0.09 0.09 0.11 0.14 0.15 0.06 0.02 0.09 0.19 0.22 0.24 0.23 0.24 0.18 0.15 0.17 0.16 0.15 0.13 0.10 0.08 0.05 0.04 0.04 0.03 0.02 0.02 0.04 0.07 0.12
0.02 0.05 0.08 0.08 0.06 0.05 0.05 0.07 0.08 0.08 0.07 0.05 0.04 0.03 0.03 0.03 0.04 0.06 0.04 0.03 0.11 0.18 0.15 0.22 0.28 0.29 0.21 0.16 0.23 0.12 0.07 0.06 0.06 0.04 0.03 0.03 0.03 0.02 0.02 0.02 0.02 0.03 0.08
0.01 0.02 0.02 0.02 0.01 0.00 0.01 0.01 0.01 0.01 0.01 0.01 0.01 0.01 0.01 0.01 0.01 0.03 0.02 0.03 0.07 0.09 0.06 0.13 0.20 0.21 0.12 0.22 0.32 0.13 0.05 0.04 0.03 0.02 0.02 0.01 0.02 0.02 0.02 0.02 0.03 0.03 0.03
0.00 0.00 0.00 0.00 0.00 0.00 0.00 0.00 0.00 0.00 0.00 0.00 0.00 0.00 0.00 0.00 0.00 0.01 0.01 0.01 0.02 0.02 0.02 0.04 0.09 0.11 0.07 0.19 0.29 0.24 0.11 0.04 0.03 0.02 0.01 0.01 0.02 0.02 0.03 0.04 0.06 0.05 0.05
0.00 0.00 0.00 0.00 0.00 0.00 0.00 0.00 0.00 0.00 0.00 0.00 0.00 0.00 0.00 0.00 0.00 0.00 0.00 0.00 0.00 0.01 0.00 0.01 0.04 0.07 0.06 0.08 0.19 0.29 0.19 0.06 0.06 0.05 0.03 0.03 0.03 0.03 0.04 0.06 0.09 0.11 0.10
0.00 0.00 0.00 0.00 0.00 0.00 0.00 0.00 0.00 0.00 0.00 0.00 0.00 0.00 0.00 0.00 0.00 0.00 0.00 0.00 0.00 0.00 0.00 0.01 0.02 0.03 0.04 0.04 0.06 0.13 0.19 0.16 0.13 0.07 0.05 0.04 0.04 0.04 0.05 0.07 0.08 0.11 0.12
0.00 0.00 0.00 0.00 0.00 0.00 0.00 0.00 0.00 0.00 0.00 0.00 0.00 0.00 0.00 0.00 0.00 0.00 0.00 0.00 0.00 0.00 0.00 0.01 0.01 0.01 0.03 0.03 0.04 0.06 0.10 0.12 0.12 0.09 0.05 0.03 0.03 0.04 0.05 0.07 0.09 0.11 0.14
0.00 0.00 0.00 0.00 0.00 0.00 0.00 0.00 0.00 0.00 0.00 0.00 0.00 0.00 0.00 0.00 0.00 0.00 0.00 0.00 0.00 0.00 0.00 0.01 0.01 0.01 0.02 0.03 0.03 0.04 0.05 0.06 0.05 0.05 0.04 0.03 0.03 0.05 0.08 0.11 0.15 0.16 0.16
MSLP
1011.24 1010.95 1010.92 1011.15 1011.55 1012.04 1012.51 1012.88 1013.12 1013.23 1013.27 1013.29 1013.37 1013.53 1013.78 1014.09 1014.42 1014.71 1014.94 1015.08 1015.13 1015.14 1015.13 1015.13 1015.16 1015.24 1015.35 1015.48 1015.61 1015.73 1015.83 1015.92 1016.00 1016.07 1016.14 1016.21 1016.28 1016.33 1016.37 1016.40 1016.43 1016.47 1016.53
1010.93 1010.77 1010.86 1011.17 1011.64 1012.17 1012.66 1013.04 1013.29 1013.41 1013.46 1013.50 1013.60 1013.78 1014.04 1014.35 1014.68 1014.96 1015.17 1015.29 1015.33 1015.34 1015.32 1015.33 1015.38 1015.46 1015.57 1015.69 1015.80 1015.90 1015.99 1016.06 1016.13 1016.21 1016.29 1016.38 1016.45 1016.51 1016.55 1016.57 1016.58 1016.60 1016.64
1010.66 1010.62 1010.80 1011.19 1011.72 1012.28 1012.79 1013.18 1013.43 1013.57 1013.64 1013.70 1013.82 1014.01 1014.28 1014.58 1014.88 1015.13 1015.30 1015.39 1015.42 1015.42 1015.42 1015.44 1015.51 1015.61 1015.73 1015.85 1015.95 1016.03 1016.10 1016.16 1016.23 1016.31 1016.41 1016.51 1016.61 1016.68 1016.72 1016.73 1016.73 1016.74 1016.76
1010.45 1010.52 1010.79 1011.25 1011.80 1012.38 1012.90 1013.29 1013.55 1013.71 1013.79 1013.89 1014.02 1014.22 1014.48 1014.76 1015.01 1015.22 1015.35 1015.40 1015.41 1015.41 1015.43 1015.49 1015.59 1015.72 1015.85 1015.98 1016.07 1016.14 1016.19 1016.24 1016.30 1016.39 1016.50 1016.62 1016.73 1016.82 1016.86 1016.88 1016.87 1016.87 1016.88
1010.36 1010.51 1010.85 1011.34 1011.91 1012.49 1013.00 1013.38 1013.65 1013.81 1013.92 1014.03 1014.18 1014.39 1014.63 1014.88 1015.09 1015.25 1015.33 1015.36 1015.35 1015.36 1015.40 1015.49 1015.63 1015.79 1015.95 1016.08 1016.17 1016.22 1016.26 1016.29 1016.35 1016.44 1016.56 1016.70 1016.82 1016.91 1016.96 1016.98 1016.97 1016.96 1016.98
1010.41 1010.61 1010.97 1011.48 1012.04 1012.60 1013.08 1013.45 1013.70 1013.86 1013.99 1014.12 1014.29 1014.50 1014.74 1014.96 1015.14 1015.25 1015.30 1015.30 1015.28 1015.30 1015.36 1015.49 1015.66 1015.85 1016.02 1016.16 1016.24 1016.28 1016.29 1016.32 1016.36 1016.45 1016.57 1016.71 1016.84 1016.93 1016.98 1016.99 1016.97 1016.97 1016.99
1010.57 1010.80 1011.17 1011.66 1012.20 1012.71 1013.15 1013.48 1013.71 1013.87 1014.01 1014.16 1014.35 1014.57 1014.81 1015.02 1015.17 1015.26 1015.27 1015.26 1015.24 1015.26 1015.34 1015.49 1015.68 1015.88 1016.06 1016.19 1016.27 1016.29 1016.29 1016.29 1016.32 1016.40 1016.51 1016.64 1016.76 1016.84 1016.88 1016.88 1016.86 1016.84 1016.87
1010.82 1011.06 1011.42 1011.88 1012.37 1012.82 1013.20 1013.48 1013.68 1013.83 1013.97 1014.14 1014.35 1014.59 1014.84 1015.05 1015.20 1015.27 1015.28 1015.24 1015.22 1015.24 1015.33 1015.48 1015.67 1015.87 1016.05 1016.16 1016.22 1016.22 1016.20 1016.19 1016.20 1016.26 1016.36 1016.47 1016.56 1016.62 1016.64 1016.62 1016.58 1016.57 1016.60
1011.11 1011.33 1011.68 1012.10 1012.53 1012.92 1013.24 1013.47 1013.62 1013.75 1013.89 1014.07 1014.30 1014.57 1014.83 1015.06 1015.21 1015.28 1015.28 1015.24 1015.21 1015.22 1015.29 1015.42 1015.60 1015.78 1015.93 1016.03 1016.06 1016.05 1016.01 1015.98 1015.98 1016.03 1016.10 1016.18 1016.25 1016.28 1016.26 1016.22 1016.17 1016.14 1016.18
1011.36 1011.59 1011.92 1012.30 1012.68 1013.01 1013.26 1013.43 1013.54 1013.64 1013.78 1013.97 1014.21 1014.50 1014.78 1015.02 1015.19 1015.26 1015.26 1015.22 1015.17 1015.15 1015.19 1015.30 1015.43 1015.58 1015.70 1015.77 1015.79 1015.76 1015.72 1015.68 1015.67 1015.70 1015.74 1015.80 1015.83 1015.83 1015.78 1015.71 1015.63 1015.60 1015.63
1011.55 1011.78 1012.10 1012.45 1012.79 1013.06 1013.25 1013.37 1013.45 1013.53 1013.64 1013.83 1014.09 1014.38 1014.68 1014.93 1015.10 1015.18 1015.18 1015.12 1015.06 1015.01 1015.01 1015.07 1015.16 1015.26 1015.35 1015.39 1015.40 1015.37 1015.32 1015.29 1015.27 1015.29 1015.32 1015.34 1015.34 1015.30 1015.23 1015.13 1015.03 1014.99 1015.02
1011.63 1011.89 1012.20 1012.54 1012.84 1013.08 1013.22 1013.30 1013.35 1013.40 1013.50 1013.67 1013.92 1014.21 1014.51 1014.76 1014.94 1015.02 1015.01 1014.95 1014.85 1014.78 1014.74 1014.74 1014.78 1014.84 1014.89 1014.91 1014.91 1014.89 1014.85 1014.82 1014.81 1014.82 1014.84 1014.84 1014.81 1014.74 1014.64 1014.52 1014.42 1014.37 1014.40
1011.60 1011.89 1012.21 1012.54 1012.83 1013.04 1013.16 1013.22 1013.24 1013.26 1013.34 1013.49 1013.71 1013.98 1014.26 1014.50 1014.67 1014.75 1014.74 1014.67 1014.56 1014.45 1014.37 1014.33 1014.33 1014.35 1014.37 1014.38 1014.37 1014.36 1014.34 1014.33 1014.32 1014.33 1014.33 1014.32 1014.27 1014.18 1014.06 1013.93 1013.82 1013.77 1013.80
1011.50 1011.80 1012.13 1012.46 1012.73 1012.93 1013.05 1013.10 1013.11 1013.12 1013.18 1013.30 1013.48 1013.71 1013.95 1014.17 1014.32 1014.39 1014.37 1014.29 1014.18 1014.06 1013.95 1013.88 1013.84 1013.82 1013.82 1013.83 1013.83 1013.82 1013.82 1013.82 1013.83 1013.83 1013.82 1013.79 1013.72 1013.61 1013.49 1013.35 1013.25 1013.20 1013.24
1011.34 1011.64 1011.97 1012.29 1012.56 1012.77 1012.89 1012.95 1012.96 1012.97 1013.00 1013.08 1013.22 1013.40 1013.59 1013.76 1013.88 1013.94 1013.92 1013.85 1013.74 1013.61 1013.50 1013.41 1013.35 1013.31 1013.30 1013.30 1013.30 1013.30 1013.31 1013.32 1013.33 1013.32 1013.30 1013.25 1013.16 1013.05 1012.92 1012.79 1012.69 1012.66 1012.70
1011.18 1011.45 1011.75 1012.05 1012.32 1012.54 1012.69 1012.77 1012.80 1012.81 1012.83 1012.87 1012.95 1013.06 1013.18 1013.30 1013.39 1013.43 1013.42 1013.35 1013.26 1013.15 1013.04 1012.95 1012.88 1012.84 1012.81 1012.80 1012.81 1012.81 1012.82 1012.83 1012.83 1012.81 1012.77 1012.70 1012.59 1012.47 1012.34 1012.21 1012.12 1012.09 1012.14
1011.05 1011.26 1011.51 1011.78 1012.04 1012.27 1012.45 1012.57 1012.63 1012.65 1012.66 1012.66 1012.68 1012.71 1012.77 1012.82 1012.87 1012.89 1012.87 1012.83 1012.76 1012.68 1012.59 1012.51 1012.44 1012.39 1012.36 1012.34 1012.34 1012.34 1012.35 1012.34 1012.33 1012.29 1012.22 1012.13 1012.01 1011.87 1011.73 1011.61 1011.52 1011.49 1011.54
1010.96 1011.09 1011.27 1011.50 1011.75 1012.00 1012.21 1012.37 1012.47 1012.51 1012.51 1012.47 1012.43 1012.39 1012.37 1012.35 1012.35 1012.34 1012.33 1012.30 1012.25 1012.20 1012.13 1012.07 1012.00 1011.96 1011.92 1011.90 1011.89 1011.88 1011.87 1011.85 1011.82 1011.76 1011.67 1011.55 1011.41 1011.26 1011.11 1010.98 1010.88 1010.85 1010.87
1010.91 1010.95 1011.06 1011.24 1011.47 1011.73 1011.98 1012.19 1012.33 1012.40 1012.39 1012.33 1012.23 1012.11 1012.01 1011.92 1011.86 1011.82 1011.79 1011.77 1011.74 1011.71 1011.66 1011.61 1011.56 1011.51 1011.47 1011.44 1011.42 1011.41 1011.39 1011.36 1011.31 1011.24 1011.13 1010.99 1010.83 1010.66 1010.50 1010.35 1010.24 1010.18 1010.18
1010.88 1010.84 1010.87 1011.01 1011.22 1011.49 1011.78 1012.03 1012.22 1012.32 1012.32 1012.23 1012.08 1011.90 1011.71 1011.55 1011.42 1011.34 1011.28 1011.25 1011.23 1011.20 1011.17 1011.12 1011.08 1011.03 1010.99 1010.96 1010.94 1010.92 1010.90 1010.87 1010.82 1010.74 1010.62 1010.47 1010.30 1010.12 1009.93 1009.76 1009.63 1009.53 1009.49
1010.85 1010.74 1010.72 1010.81 1011.01 1011.29 1011.61 1011.91 1012.14 1012.27 1012.29 1012.19 1012.00 1011.76 1011.50 1011.26 1011.07 1010.92 1010.82 1010.76 1010.72 1010.68 1010.64 1010.60 1010.55 1010.50 1010.46 1010.43 1010.42 1010.41 1010.41 1010.39 1010.35 1010.28 1010.17 1010.02 1009.85 1009.66 1009.46 1009.27 1009.10 1008.97 1008.89
1010.79 1010.64 1010.58 1010.64 1010.83 1011.13 1011.47 1011.81 1012.09 1012.26 1012.29 1012.19 1011.97 1011.68 1011.37 1011.06 1010.79 1010.58 1010.43 1010.31 1010.23 1010.16 1010.10 1010.04 1009.98 1009.92 1009.89 1009.87 1009.88 1009.89 1009.92 1009.93 1009.92 1009.87 1009.79 1009.66 1009.50 1009.31 1009.11 1008.90 1008.71 1008.55 1008.42
1010.69 1010.52 1010.44 1010.49 1010.68 1010.98 1011.35 1011.72 1012.03 1012.24 1012.29 1012.20 1011.98 1011.67 1011.31 1010.94 1010.61 1010.32 1010.10 1009.92 1009.78 1009.66 1009.55 1009.46 1009.37 1009.31 1009.28 1009.28 1009.31 1009.37 1009.43 1009.49 1009.52 1009.52 1009.47 1009.38 1009.24 1009.08 1008.88 1008.68 1008.48 1008.29 1008.12
1010.55 1010.38 1010.30 1010.34 1010.52 1010.83 1011.21 1011.60 1011.95 1012.18 1012.28 1012.21 1011.99 1011.67 1011.29 1010.88 1010.49 1010.14 1009.84 1009.58 1009.36 1009.17 1009.01 1008.87 1008.76 1008.68 1008.66 1008.68 1008.74 1008.84 1008.95 1009.06 1009.15 1009.20 1009.20 1009.15 1009.06 1008.93 1008.77 1008.58 1008.39 1008.19 1008.01
1010.42 1010.26 1010.17 1010.20 1010.37 1010.66 1011.04 1011.45 1011.81 1012.08 1012.20 1012.16 1011.97 1011.67 1011.27 1010.85 1010.41 1010.00 1009.63 1009.29 1008.99 1008.72 1008.49 1008.29 1008.15 1008.06 1008.03 1008.07 1008.17 1008.31 1008.47 1008.63 1008.77 1008.88 1008.94 1008.95 1008.91 1008.83 1008.71 1008.57 1008.40 1008.23 1008.05
1010.33 1010.17 1010.07 1010.08 1010.23 1010.49 1010.85 1011.24 1011.61 1011.89 1012.04 1012.04 1011.89 1011.61 1011.23 1010.80 1010.34 1009.89 1009.45 1009.04 1008.66 1008.31 1008.00 1007.75 1007.56 1007.45 1007.42 1007.47 1007.59 1007.77 1007.98 1008.19 1008.38 1008.54 1008.65 1008.72 1008.74 1008.72 1008.67 1008.59 1008.47 1008.34 1008.19
Thickness
5820 5820 5817 5813 5809 5805 5802 5799 5796 5794 5791 5789 5786 5784 5782 5780 5778 5776 5775 5773 5772 5770 5768 5767 5765 5764 5762 5760 5758 5756 5754 5753 5751 5750 5749 5748 5747 5746 5745 5745 5745 5745 5744
5827 5822 5818 5813 5809 5805 5801 5798 5795 5792 5790 5787 5785 5783 5781 5779 5777 5775 5774 5772 5770 5769 5768 5766 5764 5762 5761 5758 5756 5754 5753 5751 5750 5749 5748 5747 5747 5746 5745 5745 5744 5744 5744
5828 5823 5818 5813 5808 5804 5800 5797 5794 5791 5789 5787 5785 5783 5781 5779 5777 5775 5773 5771 5769 5768 5767 5765 5763 5762 5760 5758 5756 5754 5752 5750 5749 5748 5747 5746 5745 5745 5745 5744 5744 5743 5743
5827 5821 5816 5811 5807 5803 5799 5796 5793 5791 5789 5786 5784 5782 5780 5778 5776 5774 5772 5770 5768 5767 5766 5764 5763 5761 5759 5757 5755 5753 5751 5750 5748 5747 5746 5745 5744 5744 5744 5743 5743 5742 5742
5825 5820 5815 5810 5806 5802 5798 5795 5793 5790 5788 5786 5783 5781 5778 5777 5775 5773 5771 5769 5768 5766 5765 5763 5762 5761 5759 5757 5755 5753 5751 5749 5748 5747 5746 5745 5744 5743 5742 5742 5742 5741 5741
5823 5818 5814 5809 5804 5800 5796 5793 5791 5788 5786 5784 5781 5779 5777 5775 5773 5772 5770 5768 5767 5765 5764 5762 5761 5759 5758 5756 5755 5753 5750 5749 5747 5746 5745 5744 5743 5742 5742 5741 5741 5741 5741
5821 5817 5812 5808 5803 5798 5794 5791 5788 5786 5783 5781 5779 5777 5774 5772 5771 5770 5768 5767 5765 5763 5762 5760 5759 5758 5756 5755 5754 5752 5750 5748 5747 5745 5744 5743 5743 5742 5742 5742 5741 5741 5740
5820 5815 5810 5806 5801 5797 5793 5790 5787 5785 5782 5780 5778 5776 5773 5771 5770 5768 5767 5765 5763 5762 5760 5759 5758 5756 5755 5753 5752 5751 5750 5748 5747 5745 5744 5743 5742 5742 5743 5743 5742 5741 5740
5816 5812 5808 5804 5800 5796 5792 5789 5786 5784 5782 5780 5778 5775 5773 5771 5769 5767 5766 5764 5762 5761 5759 5758 5757 5755 5754 5752 5751 5750 5749 5748 5747 5746 5744 5743 5742 5742 5742 5743 5743 5742 5741
5812 5809 5805 5802 5798 5795 5791 5788 5785 5783 5781 5779 5777 5774 5772 5770 5769 5767 5766 5764 5762 5760 5759 5757 5756 5755 5754 5752 5751 5750 5749 5748 5747 5746 5745 5745 5744 5743 5743 5743 5743 5743 5742
5807 5806 5803 5800 5797 5794 5790 5787 5785 5782 5780 5778 5775 5773 5771 5770 5768 5766 5765 5763 5762 5760 5759 5757 5756 5755 5754 5752 5751 5750 5749 5748 5747 5746 5746 5747 5746 5745 5744 5744 5745 5744 5744
5803 5803 5801 5798 5795 5792 5789 5786 5783 5781 5779 5776 5774 5772 5770 5768 5766 5764 5762 5761 5761 5760 5759 5757 5756 5754 5753 5752 5751 5750 5749 5748 5747 5747 5747 5748 5748 5747 5747 5747 5747 5747 5746
5803 5800 5798 5795 5792 5789 5786 5783 5781 5778 5776 5774 5772 5770 5767 5764 5762 5760 5759 5758 5758 5757 5756 5756 5755 5754 5753 5752 5751 5750 5750 5749 5748 5747 5748 5748 5748 5748 5749 5749 5749 5749 5748
5798 5796 5794 5791 5787 5784 5781 5778 5776 5774 5772 5770 5768 5766 5763 5760 5758 5756 5755 5755 5754 5753 5752 5752 5753 5752 5752 5751 5750 5749 5749 5748 5748 5748 5748 5748 5749 5749 5750 5750 5751 5751 5750
5793 5790 5788 5785 5782 5778 5774 5772 5770 5769 5767 5765 5763 5760 5758 5756 5754 5752 5752 5751 5750 5748 5748 5748 5748 5748 5749 5749 5748 5748 5748 5748 5747 5747 5747 5748 5748 5749 5750 5750 5751 5751 5751
5790 5786 5784 5779 5775 5771 5768 5766 5765 5763 5761 5759 5757 5755 5753 5751 5750 5748 5748 5748 5747 5745 5744 5744 5744 5744 5744 5745 5745 5745 5745 5745 5745 5745 5745 5746 5747 5748 5749 5750 5751 5751 5751
5786 5783 5778 5774 5769 5764 5761 5759 5757 5756 5754 5752 5751 5750 5748 5746 5744 5744 5743 5744 5744 5742 5741 5741 5741 5740 5740 5740 5741 5741 5740 5740 5741 5742 5743 5743 5744 5746 5747 5748 5750 5751 5751
5782 5777 5773 5770 5764 5760 5757 5755 5753 5751 5749 5747 5746 5744 5742 5741 5739 5738 5738 5740 5740 5738 5738 5737 5737 5736 5736 5736 5736 5736 5736 5736 5738 5739 5739 5740 5741 5742 5744 5746 5748 5749 5749
5777 5772 5768 5765 5762 5759 5756 5752 5750 5747 5745 5742 5741 5739 5738 5736 5734 5733 5733 5735 5735 5734 5734 5733 5733 5732 5732 5733 5732 5732 5732 5732 5733 5734 5735 5737 5737 5739 5740 5742 5743 5745 5747
5771 5767 5763 5761 5758 5755 5751 5747 5743 5740 5739 5737 5734 5732 5731 5729 5728 5727 5727 5728 5728 5728 5728 5728 5727 5728 5728 5729 5728 5729 5730 5730 5731 5731 5732 5733 5734 5735 5736 5737 5739 5741 5743
5763 5760 5757 5754 5752 5747 5741 5737 5733 5731 5731 5729 5728 5726 5724 5722 5721 5720 5720 5720 5721 5721 5722 5722 5722 5721 5722 5722 5718 5720 5724 5726 5727 5728 5728 5729 5730 5731 5732 5733 5735 5737 5739
5757 5754 5752 5749 5745 5740 5735 5731 5728 5726 5723 5721 5719 5717 5716 5715 5714 5714 5714 5714 5714 5715 5716 5716 5715 5715 5716 5716 5711 5708 5709 5714 5720 5723 5723 5724 5724 5725 5726 5728 5729 5732 5734
5751 5750 5747 5743 5739 5734 5730 5726 5722 5718 5715 5712 5710 5708 5707 5706 5706 5706 5707 5707 5708 5709 5710 5711 5710 5709 5709 5710 5708 5703 5700 5702 5708 5712 5716 5716 5717 5717 5719 5721 5724 5726 5728
5749 5746 5742 5738 5734 5730 5726 5721 5715 5710 5705 5704 5702 5700 5698 5697 5697 5697 5698 5700 5701 5702 5703 5705 5706 5705 5704 5703 5703 5702 5702 5702 5698 5700 5704 5707 5708 5709 5711 5713 5716 5718 5719
5745 5740 5737 5733 5729 5726 5721 5717 5711 5706 5702 5700 5697 5693 5691 5690 5689 5689 5690 5692 5693 5695 5697 5698 5699 5699 5699 5699 5697 5696 5695 5695 5695 5692 5693 5696 5698 5701 5703 5704 5706 5709 5711
5738 5734 5731 5728 5724 5721 5717 5713 5708 5703 5699 5695 5692 5688 5686 5683 5682 5681 5682 5683 5685 5687 5689 5691 5692 5693 5694 5694 5693 5692 5690 5689 5689 5688 5687 5688 5688 5690 5693 5694 5696 5699 5701